Location: Lower Kingswood
(51.2667°N, 0.2167°W)
Time: 19:39:05
(UTC+00:00)

CZ-4 R/B - Pass Details

Date: 26 September 2023
Orbit: 680 x 749 km, 98.6° (Epoch: 10 December)

Event Time Altitude Azimuth Distance (km) Brightness Sun altitude
Rises 02:46:10 0° 16° (NNE) 3,058 7.9 -28.0°
Reaches altitude 10° 02:48:25 10° 18° (NNE) 2,142 7.0 -27.7°
Enters shadow 02:52:50 71° 73° (ENE) 734 3.9 -27.2°
